Wetterdaten: Dienstag, 04.03.2014
Datum Zeit Temperatur Luftfeuchte Luftdruck Regen Wind Richtung Richtung Taupunkt Windchill Windben
04.03.2014 00:00 1,4 C 97 % 997,4 hPa 0,0 l/m 0,0 km/h (0 Bft) O 90 1,0 C 1,6 C 0,0 km/h (0 Bft)
04.03.2014 00:05 1,4 C 97 % 997,4 hPa 0,0 l/m 0,0 km/h (0 Bft) NO 45 1,0 C 1,6 C 0,0 km/h (0 Bft)
04.03.2014 00:10 1,4 C 97 % 997,4 hPa 0,0 l/m 0,0 km/h (0 Bft) O 90 1,0 C 1,6 C 0,0 km/h (0 Bft)
04.03.2014 00:15 1,4 C 97 % 997,4 hPa 0,0 l/m 0,5 km/h (0 Bft) NO 45 1,0 C 1,6 C 3,1 km/h (1 Bft)
04.03.2014 00:20 1,3 C 97 % 997,4 hPa 0,0 l/m 1,1 km/h (1 Bft) NO 45 0,9 C 1,5 C 0,0 km/h (0 Bft)
04.03.2014 00:25 1,1 C 97 % 997,4 hPa 0,0 l/m 1,1 km/h (1 Bft) O-SO 112 0,7 C 1,4 C 2,4 km/h (1 Bft)
04.03.2014 00:30 1,1 C 97 % 997,2 hPa 0,0 l/m 1,9 km/h (1 Bft) O 90 0,7 C 1,2 C 3,9 km/h (1 Bft)
04.03.2014 00:35 1,1 C 97 % 997,2 hPa 0,0 l/m 2,9 km/h (1 Bft) O-SO 112 0,7 C 1,0 C 3,1 km/h (1 Bft)
04.03.2014 00:40 1,2 C 97 % 997,2 hPa 0,0 l/m 2,1 km/h (1 Bft) O 90 0,8 C 1,3 C 2,1 km/h (1 Bft)
04.03.2014 00:45 1,2 C 97 % 997,2 hPa 0,0 l/m 1,0 km/h (0 Bft) N-NO 22 0,8 C 1,3 C 0,0 km/h (0 Bft)
04.03.2014 00:50 1,3 C 97 % 997,2 hPa 0,0 l/m 0,2 km/h (0 Bft) NO 45 0,9 C 1,4 C 0,0 km/h (0 Bft)
04.03.2014 00:55 1,3 C 97 % 997,2 hPa 0,0 l/m 0,0 km/h (0 Bft) NO 45 0,9 C 1,4 C 0,0 km/h (0 Bft)
04.03.2014 01:00 1,3 C 97 % 997,2 hPa 0,0 l/m 0,0 km/h (0 Bft) N-NO 22 0,9 C 1,4 C 0,0 km/h (0 Bft)
04.03.2014 01:05 1,3 C 97 % 997,2 hPa 0,0 l/m 0,0 km/h (0 Bft) N-NO 22 0,9 C 1,5 C 0,0 km/h (0 Bft)
04.03.2014 01:10 1,3 C 97 % 997,3 hPa 0,0 l/m 0,0 km/h (0 Bft) O 90 0,9 C 1,5 C 0,0 km/h (0 Bft)
04.03.2014 01:15 1,3 C 97 % 997,3 hPa 0,0 l/m 0,0 km/h (0 Bft) O-SO 112 0,9 C 1,5 C 0,0 km/h (0 Bft)
04.03.2014 01:20 1,3 C 97 % 997,3 hPa 0,0 l/m 0,0 km/h (0 Bft) NO 45 0,9 C 1,5 C 0,0 km/h (0 Bft)
04.03.2014 01:25 1,3 C 97 % 997,3 hPa 0,0 l/m 0,0 km/h (0 Bft) NO 45 0,9 C 1,5 C 0,0 km/h (0 Bft)
04.03.2014 01:30 1,3 C 97 % 997,2 hPa 0,0 l/m 0,0 km/h (0 Bft) NO 45 0,9 C 1,5 C 0,0 km/h (0 Bft)
04.03.2014 01:35 1,3 C 97 % 997,2 hPa 0,0 l/m 0,0 km/h (0 Bft) NO 45 0,9 C 1,5 C 0,0 km/h (0 Bft)
04.03.2014 01:40 1,3 C 97 % 997,2 hPa 0,0 l/m 0,0 km/h (0 Bft) O 90 0,9 C 1,6 C 0,0 km/h (0 Bft)
04.03.2014 01:45 1,3 C 97 % 997,2 hPa 0,0 l/m 0,0 km/h (0 Bft) O 90 0,9 C 1,6 C 0,0 km/h (0 Bft)
04.03.2014 01:50 1,4 C 97 % 997,6 hPa 0,0 l/m 0,2 km/h (0 Bft) O 90 1,0 C 1,6 C 2,1 km/h (1 Bft)
04.03.2014 01:55 1,4 C 97 % 997,6 hPa 0,0 l/m 0,2 km/h (0 Bft) O 90 1,0 C 1,6 C 0,0 km/h (0 Bft)
04.03.2014 02:00 1,3 C 97 % 997,6 hPa 0,0 l/m 0,2 km/h (0 Bft) N-NO 22 0,9 C 1,6 C 0,0 km/h (0 Bft)
04.03.2014 02:05 1,3 C 97 % 997,6 hPa 0,0 l/m 0,0 km/h (0 Bft) N-NO 22 0,9 C 1,6 C 0,0 km/h (0 Bft)
04.03.2014 02:10 1,3 C 97 % 997,4 hPa 0,0 l/m 0,0 km/h (0 Bft) NO 45 0,9 C 1,6 C 0,0 km/h (0 Bft)
04.03.2014 02:15 1,3 C 97 % 997,4 hPa 0,0 l/m 0,0 km/h (0 Bft) O 90 0,9 C 1,6 C 0,0 km/h (0 Bft)
04.03.2014 02:20 1,3 C 97 % 997,4 hPa 0,0 l/m 0,0 km/h (0 Bft) O-SO 112 0,9 C 1,6 C 0,0 km/h (0 Bft)
04.03.2014 02:25 1,3 C 97 % 997,4 hPa 0,0 l/m 0,0 km/h (0 Bft) O-SO 112 0,9 C 1,6 C 0,0 km/h (0 Bft)
04.03.2014 02:30 1,4 C 97 % 997,3 hPa 0,0 l/m 0,5 km/h (0 Bft) O 90 1,0 C 1,6 C 0,0 km/h (0 Bft)
04.03.2014 02:35 1,4 C 97 % 997,3 hPa 0,0 l/m 0,5 km/h (0 Bft) O-NO 67 1,0 C 1,6 C 0,0 km/h (0 Bft)
04.03.2014 02:40 1,4 C 97 % 997,3 hPa 0,0 l/m 0,2 km/h (0 Bft) NO 45 1,0 C 1,6 C 1,8 km/h (1 Bft)
04.03.2014 02:45 1,4 C 97 % 997,3 hPa 0,0 l/m 0,2 km/h (0 Bft) NO 45 1,0 C 1,6 C 0,0 km/h (0 Bft)
04.03.2014 02:50 1,4 C 97 % 997,4 hPa 0,0 l/m 0,3 km/h (0 Bft) O-SO 112 1,0 C 1,7 C 1,9 km/h (1 Bft)
04.03.2014 02:55 1,4 C 97 % 997,4 hPa 0,0 l/m 0,6 km/h (0 Bft) NO 45 1,0 C 1,7 C 1,8 km/h (1 Bft)
04.03.2014 03:00 1,4 C 97 % 997,4 hPa 0,0 l/m 0,6 km/h (0 Bft) NO 45 1,0 C 1,7 C 0,0 km/h (0 Bft)
04.03.2014 03:05 1,4 C 97 % 997,4 hPa 0,0 l/m 0,3 km/h (0 Bft) N-NO 22 1,0 C 1,7 C 0,0 km/h (0 Bft)
04.03.2014 03:10 1,4 C 97 % 997,2 hPa 0,0 l/m 0,0 km/h (0 Bft) NO 45 1,0 C 1,7 C 0,0 km/h (0 Bft)
04.03.2014 03:15 1,4 C 97 % 997,2 hPa 0,0 l/m 0,0 km/h (0 Bft) O-NO 67 1,0 C 1,6 C 0,0 km/h (0 Bft)
04.03.2014 03:20 1,4 C 97 % 997,2 hPa 0,0 l/m 0,0 km/h (0 Bft) NO 45 1,0 C 1,6 C 0,0 km/h (0 Bft)
04.03.2014 03:25 1,4 C 97 % 997,2 hPa 0,0 l/m 0,0 km/h (0 Bft) NO 45 1,0 C 1,6 C 0,0 km/h (0 Bft)
04.03.2014 03:30 1,4 C 97 % 997,3 hPa 0,0 l/m 0,0 km/h (0 Bft) NO 45 1,0 C 1,6 C 0,0 km/h (0 Bft)
04.03.2014 03:35 1,4 C 97 % 997,3 hPa 0,0 l/m 0,0 km/h (0 Bft) NO 45 1,0 C 1,6 C 0,0 km/h (0 Bft)
04.03.2014 03:40 1,4 C 97 % 997,3 hPa 0,0 l/m 0,2 km/h (0 Bft) NO 45 1,0 C 1,6 C 0,0 km/h (0 Bft)
04.03.2014 03:45 1,4 C 97 % 997,3 hPa 0,0 l/m 0,2 km/h (0 Bft) W-NW 292 1,0 C 1,6 C 0,0 km/h (0 Bft)
04.03.2014 03:50 1,4 C 97 % 997,5 hPa 0,0 l/m 0,0 km/h (0 Bft) O 90 1,0 C 1,6 C 0,0 km/h (0 Bft)
04.03.2014 03:55 1,4 C 97 % 997,5 hPa 0,0 l/m 0,0 km/h (0 Bft) O-NO 67 1,0 C 1,6 C 0,0 km/h (0 Bft)
04.03.2014 04:00 1,4 C 97 % 997,5 hPa 0,0 l/m 0,0 km/h (0 Bft) O-NO 67 1,0 C 1,6 C 0,0 km/h (0 Bft)
04.03.2014 04:05 1,4 C 97 % 997,5 hPa 0,0 l/m 0,0 km/h (0 Bft) O-SO 112 1,0 C 1,6 C 0,0 km/h (0 Bft)
04.03.2014 04:10 1,3 C 97 % 997,7 hPa 0,0 l/m 0,0 km/h (0 Bft) O-SO 112 0,9 C 1,6 C 0,0 km/h (0 Bft)
04.03.2014 04:15 1,4 C 97 % 997,7 hPa 0,0 l/m 0,0 km/h (0 Bft) NO 45 1,0 C 1,6 C 0,0 km/h (0 Bft)
04.03.2014 04:20 1,4 C 97 % 997,7 hPa 0,0 l/m 0,0 km/h (0 Bft) O 90 1,0 C 1,6 C 0,0 km/h (0 Bft)
04.03.2014 04:25 1,4 C 97 % 997,7 hPa 0,0 l/m 0,0 km/h (0 Bft) NO 45 1,0 C 1,6 C 0,0 km/h (0 Bft)
04.03.2014 04:30 1,4 C 97 % 997,8 hPa 0,0 l/m 0,0 km/h (0 Bft) O-NO 67 1,0 C 1,6 C 0,0 km/h (0 Bft)
04.03.2014 04:35 1,4 C 97 % 997,8 hPa 0,0 l/m 0,0 km/h (0 Bft) O-NO 67 1,0 C 1,6 C 0,0 km/h (0 Bft)
04.03.2014 04:40 1,4 C 97 % 997,8 hPa 0,0 l/m 0,0 km/h (0 Bft) O-SO 112 1,0 C 1,7 C 0,0 km/h (0 Bft)
04.03.2014 04:45 1,4 C 97 % 997,8 hPa 0,0 l/m 1,6 km/h (1 Bft) O 90 1,0 C 1,7 C 6,0 km/h (2 Bft)
04.03.2014 04:50 1,5 C 97 % 997,8 hPa 0,0 l/m 3,4 km/h (1 Bft) NO 45 1,1 C 1,3 C 6,4 km/h (2 Bft)
04.03.2014 04:55 1,5 C 97 % 997,8 hPa 0,0 l/m 2,3 km/h (1 Bft) N-NO 22 1,1 C 1,8 C 0,0 km/h (0 Bft)
04.03.2014 05:00 1,4 C 97 % 997,8 hPa 0,0 l/m 0,2 km/h (0 Bft) O-NO 67 1,0 C 1,8 C 0,0 km/h (0 Bft)
04.03.2014 05:05 1,4 C 97 % 997,8 hPa 0,0 l/m 0,0 km/h (0 Bft) NO 45 1,0 C 1,7 C 0,0 km/h (0 Bft)
04.03.2014 05:10 1,4 C 97 % 998,0 hPa 0,0 l/m 0,0 km/h (0 Bft) O-NO 67 1,0 C 1,7 C 0,0 km/h (0 Bft)
04.03.2014 05:15 1,4 C 97 % 998,0 hPa 0,0 l/m 0,0 km/h (0 Bft) NO 45 1,0 C 1,7 C 0,0 km/h (0 Bft)
04.03.2014 05:20 1,4 C 97 % 998,0 hPa 0,0 l/m 0,0 km/h (0 Bft) O-SO 112 1,0 C 1,7 C 0,0 km/h (0 Bft)
04.03.2014 05:25 1,4 C 97 % 998,0 hPa 0,0 l/m 0,0 km/h (0 Bft) O-SO 112 1,0 C 1,7 C 0,0 km/h (0 Bft)
04.03.2014 05:30 1,4 C 97 % 998,0 hPa 0,0 l/m 0,0 km/h (0 Bft) O-SO 112 1,0 C 1,7 C 0,0 km/h (0 Bft)
04.03.2014 05:35 1,4 C 97 % 998,0 hPa 0,0 l/m 0,0 km/h (0 Bft) O-SO 112 1,0 C 1,7 C 0,0 km/h (0 Bft)
04.03.2014 05:40 1,4 C 97 % 998,0 hPa 0,0 l/m 0,0 km/h (0 Bft) O-SO 112 1,0 C 1,7 C 0,0 km/h (0 Bft)
04.03.2014 05:45 1,4 C 97 % 998,0 hPa 0,0 l/m 0,0 km/h (0 Bft) O-SO 112 1,0 C 1,7 C 0,0 km/h (0 Bft)
04.03.2014 05:50 1,4 C 97 % 998,1 hPa 0,0 l/m 0,2 km/h (0 Bft) O-SO 112 1,0 C 1,7 C 0,0 km/h (0 Bft)
04.03.2014 05:55 1,4 C 97 % 998,1 hPa 0,0 l/m 0,2 km/h (0 Bft) O-SO 112 1,0 C 1,7 C 0,0 km/h (0 Bft)
04.03.2014 06:00 1,4 C 97 % 998,1 hPa 0,0 l/m 0,0 km/h (0 Bft) O-SO 112 1,0 C 1,7 C 0,0 km/h (0 Bft)
04.03.2014 06:05 1,4 C 97 % 998,1 hPa 0,0 l/m 0,0 km/h (0 Bft) O 90 1,0 C 1,7 C 0,0 km/h (0 Bft)
04.03.2014 06:10 1,4 C 97 % 998,2 hPa 0,0 l/m 0,0 km/h (0 Bft) N-NO 22 1,0 C 1,7 C 0,0 km/h (0 Bft)
04.03.2014 06:15 1,4 C 97 % 998,2 hPa 0,0 l/m 0,0 km/h (0 Bft) O-SO 112 1,0 C 1,7 C 0,0 km/h (0 Bft)
04.03.2014 06:20 1,4 C 97 % 998,2 hPa 0,0 l/m 0,0 km/h (0 Bft) O 90 1,0 C 1,7 C 0,0 km/h (0 Bft)
04.03.2014 06:25 1,4 C 97 % 998,2 hPa 0,0 l/m 0,0 km/h (0 Bft) O-SO 112 1,0 C 1,7 C 0,0 km/h (0 Bft)
04.03.2014 06:30 1,4 C 97 % 998,3 hPa 0,0 l/m 0,2 km/h (0 Bft) O-SO 112 1,0 C 1,7 C 1,9 km/h (1 Bft)
04.03.2014 06:35 1,4 C 97 % 998,3 hPa 0,0 l/m 1,0 km/h (0 Bft) O-SO 112 1,0 C 1,7 C 2,6 km/h (1 Bft)
04.03.2014 06:40 1,4 C 97 % 998,3 hPa 0,0 l/m 1,9 km/h (1 Bft) N-NO 22 1,0 C 1,7 C 1,9 km/h (1 Bft)
04.03.2014 06:45 1,4 C 97 % 998,3 hPa 0,0 l/m 2,1 km/h (1 Bft) O-SO 112 1,0 C 1,7 C 3,5 km/h (1 Bft)
04.03.2014 06:50 1,4 C 97 % 998,6 hPa 0,0 l/m 2,9 km/h (1 Bft) S-SW 202 1,0 C 1,5 C 6,8 km/h (2 Bft)
04.03.2014 06:55 1,4 C 97 % 998,6 hPa 0,0 l/m 2,9 km/h (1 Bft) SO 135 1,0 C 1,5 C 2,7 km/h (1 Bft)
04.03.2014 07:00 1,3 C 97 % 998,6 hPa 0,0 l/m 2,7 km/h (1 Bft) S-SO 157 0,9 C 1,6 C 4,5 km/h (1 Bft)
04.03.2014 07:05 1,4 C 97 % 998,6 hPa 0,0 l/m 2,9 km/h (1 Bft) S 180 1,0 C 1,5 C 5,0 km/h (1 Bft)
04.03.2014 07:10 1,4 C 97 % 998,8 hPa 0,0 l/m 3,7 km/h (1 Bft) S 180 1,0 C 0,9 C 7,1 km/h (2 Bft)
04.03.2014 07:15 1,3 C 97 % 998,8 hPa 0,0 l/m 3,2 km/h (1 Bft) S-SO 157 0,9 C 1,2 C 1,8 km/h (1 Bft)
04.03.2014 07:20 1,3 C 97 % 998,8 hPa 0,0 l/m 2,4 km/h (1 Bft) SO 135 0,9 C 1,6 C 1,9 km/h (1 Bft)
04.03.2014 07:25 1,3 C 97 % 998,8 hPa 0,0 l/m 2,6 km/h (1 Bft) S 180 0,9 C 1,6 C 3,4 km/h (1 Bft)
04.03.2014 07:30 1,3 C 97 % 998,8 hPa 0,0 l/m 2,4 km/h (1 Bft) S-SO 157 0,9 C 1,5 C 0,0 km/h (0 Bft)
04.03.2014 07:35 1,3 C 97 % 998,8 hPa 0,0 l/m 1,4 km/h (1 Bft) S 180 0,9 C 1,5 C 2,3 km/h (1 Bft)
04.03.2014 07:40 1,2 C 97 % 998,8 hPa 0,0 l/m 0,3 km/h (0 Bft) S 180 0,8 C 1,4 C 0,0 km/h (0 Bft)
04.03.2014 07:45 1,1 C 97 % 998,8 hPa 0,0 l/m 0,6 km/h (0 Bft) O-SO 112 0,7 C 1,4 C 3,9 km/h (1 Bft)
04.03.2014 07:50 1,0 C 97 % 999,1 hPa 0,0 l/m 1,4 km/h (1 Bft) O-SO 112 0,6 C 1,2 C 0,0 km/h (0 Bft)
04.03.2014 07:55 0,9 C 98 % 999,1 hPa 0,0 l/m 1,3 km/h (1 Bft) O-SO 112 0,6 C 1,1 C 0,0 km/h (0 Bft)
04.03.2014 08:00 0,7 C 98 % 999,1 hPa 0,0 l/m 0,0 km/h (0 Bft) O-SO 112 0,4 C 1,0 C 0,0 km/h (0 Bft)
04.03.2014 08:05 0,7 C 98 % 999,1 hPa 0,0 l/m 0,0 km/h (0 Bft) O 90 0,4 C 0,9 C 0,0 km/h (0 Bft)
04.03.2014 08:10 0,7 C 98 % 999,6 hPa 0,0 l/m 0,0 km/h (0 Bft) O-SO 112 0,4 C 0,9 C 0,0 km/h (0 Bft)
04.03.2014 08:15 0,8 C 98 % 999,6 hPa 0,0 l/m 1,1 km/h (1 Bft) O-SO 112 0,5 C 1,0 C 3,9 km/h (1 Bft)
04.03.2014 08:20 0,8 C 98 % 999,6 hPa 0,0 l/m 2,3 km/h (1 Bft) S-SO 157 0,5 C 1,0 C 0,0 km/h (0 Bft)
04.03.2014 08:25 0,8 C 98 % 999,6 hPa 0,0 l/m 1,4 km/h (1 Bft) O-SO 112 0,5 C 1,1 C 2,1 km/h (1 Bft)
04.03.2014 08:30 0,8 C 98 % 999,8 hPa 0,0 l/m 0,5 km/h (0 Bft) SO 135 0,5 C 1,1 C 0,0 km/h (0 Bft)
04.03.2014 08:35 0,8 C 98 % 999,8 hPa 0,0 l/m 0,5 km/h (0 Bft) S-SO 157 0,5 C 1,1 C 0,0 km/h (0 Bft)
04.03.2014 08:40 0,9 C 98 % 999,8 hPa 0,0 l/m 0,8 km/h (0 Bft) SO 135 0,6 C 1,2 C 0,0 km/h (0 Bft)
04.03.2014 08:45 1,0 C 97 % 999,8 hPa 0,0 l/m 0,8 km/h (0 Bft) O-SO 112 0,6 C 1,2 C 0,0 km/h (0 Bft)
04.03.2014 08:50 1,0 C 97 % 1000,1 hPa 0,0 l/m 0,5 km/h (0 Bft) O-SO 112 0,6 C 1,2 C 0,0 km/h (0 Bft)
04.03.2014 08:55 1,0 C 97 % 1000,1 hPa 0,0 l/m 0,3 km/h (0 Bft) S 180 0,6 C 1,3 C 0,0 km/h (0 Bft)
04.03.2014 09:00 1,1 C 97 % 1000,1 hPa 0,0 l/m 0,5 km/h (0 Bft) SO 135 0,7 C 1,4 C 0,0 km/h (0 Bft)
04.03.2014 09:05 1,2 C 97 % 1000,1 hPa 0,0 l/m 1,4 km/h (1 Bft) SO 135 0,8 C 1,5 C 4,8 km/h (1 Bft)
04.03.2014 09:10 1,3 C 97 % 1000,5 hPa 0,0 l/m 2,9 km/h (1 Bft) S-SO 157 0,9 C 1,2 C 7,4 km/h (2 Bft)
04.03.2014 09:15 1,4 C 97 % 1000,5 hPa 0,0 l/m 3,1 km/h (1 Bft) S-SW 202 1,0 C 1,4 C 4,5 km/h (1 Bft)
04.03.2014 09:20 1,5 C 97 % 1000,5 hPa 0,0 l/m 2,9 km/h (1 Bft) S-SO 157 1,1 C 1,5 C 2,1 km/h (1 Bft)
04.03.2014 09:25 1,6 C 97 % 1000,5 hPa 0,0 l/m 2,7 km/h (1 Bft) S 180 1,2 C 1,7 C 2,6 km/h (1 Bft)
04.03.2014 09:30 1,7 C 97 % 1000,4 hPa 0,0 l/m 1,6 km/h (1 Bft) S 180 1,3 C 2,0 C 4,0 km/h (1 Bft)
04.03.2014 09:35 1,6 C 97 % 1000,4 hPa 0,0 l/m 1,8 km/h (1 Bft) S 180 1,2 C 2,0 C 0,0 km/h (0 Bft)
04.03.2014 09:40 1,6 C 97 % 1000,4 hPa 0,0 l/m 1,6 km/h (1 Bft) S 180 1,2 C 1,9 C 2,9 km/h (1 Bft)
04.03.2014 09:45 1,6 C 97 % 1000,4 hPa 0,0 l/m 1,4 km/h (1 Bft) SW 225 1,2 C 1,9 C 2,4 km/h (1 Bft)
04.03.2014 09:50 1,6 C 97 % 1000,8 hPa 0,0 l/m 2,4 km/h (1 Bft) W-SW 247 1,2 C 1,9 C 4,2 km/h (1 Bft)
04.03.2014 09:55 1,6 C 97 % 1000,8 hPa 0,0 l/m 2,6 km/h (1 Bft) W-SW 247 1,2 C 1,9 C 4,3 km/h (1 Bft)
04.03.2014 10:00 1,6 C 97 % 1000,8 hPa 0,0 l/m 3,7 km/h (1 Bft) SW 225 1,2 C 1,2 C 3,9 km/h (1 Bft)
04.03.2014 10:05 1,6 C 97 % 1000,8 hPa 0,0 l/m 3,9 km/h (1 Bft) W-SW 247 1,2 C 1,1 C 5,8 km/h (2 Bft)
04.03.2014 10:10 1,7 C 97 % 1000,9 hPa 0,0 l/m 4,0 km/h (1 Bft) S-SO 157 1,3 C 1,0 C 5,0 km/h (1 Bft)
04.03.2014 10:15 1,8 C 97 % 1000,9 hPa 0,0 l/m 4,0 km/h (1 Bft) S 180 1,4 C 1,1 C 5,5 km/h (1 Bft)
04.03.2014 10:20 1,8 C 97 % 1000,9 hPa 0,0 l/m 3,2 km/h (1 Bft) W 270 1,4 C 1,6 C 4,8 km/h (1 Bft)
04.03.2014 10:25 1,8 C 97 % 1000,9 hPa 0,0 l/m 3,9 km/h (1 Bft) S-SW 202 1,4 C 1,2 C 6,4 km/h (2 Bft)
04.03.2014 10:30 1,9 C 97 % 1001,1 hPa 0,0 l/m 5,8 km/h (2 Bft) S 180 1,5 C 0,3 C 10,6 km/h (2 Bft)
04.03.2014 10:35 2,0 C 97 % 1001,1 hPa 0,0 l/m 6,0 km/h (2 Bft) S-SW 202 1,6 C 0,4 C 3,4 km/h (1 Bft)
04.03.2014 10:40 2,2 C 97 % 1001,1 hPa 0,0 l/m 5,6 km/h (1 Bft) S-SW 202 1,8 C 0,8 C 6,4 km/h (2 Bft)
04.03.2014 10:45 2,2 C 97 % 1001,1 hPa 0,0 l/m 5,8 km/h (2 Bft) S 180 1,8 C 0,9 C 7,4 km/h (2 Bft)
04.03.2014 10:50 2,2 C 97 % 1001,4 hPa 0,0 l/m 6,3 km/h (2 Bft) O-SO 112 1,8 C 0,8 C 12,6 km/h (3 Bft)
04.03.2014 10:55 2,3 C 97 % 1001,4 hPa 0,0 l/m 5,6 km/h (1 Bft) SO 135 1,9 C 1,2 C 3,9 km/h (1 Bft)
04.03.2014 11:00 2,3 C 97 % 1001,4 hPa 0,0 l/m 4,7 km/h (1 Bft) S-SW 202 1,9 C 1,7 C 6,4 km/h (2 Bft)
04.03.2014 11:05 2,2 C 97 % 1001,4 hPa 0,0 l/m 5,6 km/h (1 Bft) S-SO 157 1,8 C 1,3 C 7,4 km/h (2 Bft)
04.03.2014 11:10 2,2 C 97 % 1001,8 hPa 0,0 l/m 5,8 km/h (2 Bft) S-SO 157 1,8 C 1,1 C 6,0 km/h (2 Bft)
04.03.2014 11:15 2,2 C 97 % 1001,8 hPa 0,0 l/m 5,1 km/h (1 Bft) S-SO 157 1,8 C 1,3 C 4,0 km/h (1 Bft)
04.03.2014 11:20 2,1 C 96 % 1001,8 hPa 0,0 l/m 5,3 km/h (1 Bft) S 180 1,5 C 1,2 C 3,5 km/h (1 Bft)
04.03.2014 11:25 2,1 C 96 % 1001,8 hPa 0,0 l/m 4,5 km/h (1 Bft) SO 135 1,5 C 1,6 C 3,1 km/h (1 Bft)
04.03.2014 11:30 2,2 C 96 % 1002,0 hPa 0,0 l/m 4,7 km/h (1 Bft) S 180 1,6 C 1,6 C 11,7 km/h (2 Bft)
04.03.2014 11:35 2,4 C 96 % 1002,0 hPa 0,0 l/m 5,6 km/h (1 Bft) S-SO 157 1,8 C 1,3 C 10,5 km/h (2 Bft)
04.03.2014 11:40 2,6 C 96 % 1002,0 hPa 0,0 l/m 6,4 km/h (2 Bft) S 180 2,0 C 1,1 C 6,9 km/h (2 Bft)
04.03.2014 11:45 2,6 C 96 % 1002,0 hPa 0,0 l/m 6,3 km/h (2 Bft) O-SO 112 2,0 C 1,3 C 5,5 km/h (1 Bft)
04.03.2014 11:50 2,5 C 96 % 1002,2 hPa 0,0 l/m 6,4 km/h (2 Bft) S 180 1,9 C 1,1 C 7,1 km/h (2 Bft)
04.03.2014 11:55 2,6 C 96 % 1002,2 hPa 0,0 l/m 6,1 km/h (2 Bft) SO 135 2,0 C 1,2 C 11,3 km/h (2 Bft)
04.03.2014 12:00 2,5 C 96 % 1002,2 hPa 0,0 l/m 6,4 km/h (2 Bft) S 180 1,9 C 1,2 C 6,3 km/h (2 Bft)
04.03.2014 12:05 2,7 C 96 % 1002,2 hPa 0,0 l/m 6,3 km/h (2 Bft) S-SO 157 2,1 C 1,4 C 6,6 km/h (2 Bft)
04.03.2014 12:10 2,9 C 96 % 1002,5 hPa 0,0 l/m 5,1 km/h (1 Bft) S 180 2,3 C 2,2 C 5,6 km/h (1 Bft)
04.03.2014 12:15 3,0 C 95 % 1002,5 hPa 0,0 l/m 5,6 km/h (1 Bft) SO 135 2,3 C 2,2 C 7,4 km/h (2 Bft)
04.03.2014 12:20 2,9 C 95 % 1002,5 hPa 0,0 l/m 6,6 km/h (2 Bft) SO 135 2,2 C 1,8 C 5,8 km/h (2 Bft)
04.03.2014 12:25 3,1 C 94 % 1002,5 hPa 0,0 l/m 5,8 km/h (2 Bft) S-SO 157 2,2 C 2,3 C 5,0 km/h (1 Bft)
04.03.2014 12:30 3,0 C 93 % 1002,8 hPa 0,0 l/m 5,6 km/h (1 Bft) S 180 2,0 C 2,6 C 8,4 km/h (2 Bft)
04.03.2014 12:35 3,0 C 93 % 1002,8 hPa 0,0 l/m 6,4 km/h (2 Bft) S-SW 202 2,0 C 2,3 C 6,9 km/h (2 Bft)
04.03.2014 12:40 3,0 C 93 % 1002,8 hPa 0,0 l/m 6,9 km/h (2 Bft) S 180 2,0 C 1,6 C 9,2 km/h (2 Bft)
04.03.2014 12:43 3,1 C 92 % 1002,8 hPa 0,0 l/m 6,8 km/h (2 Bft) S 180 1,9 C 1,8 C 8,9 km/h (2 Bft)
04.03.2014 12:45 3,1 C 92 % 1002,8 hPa 0,0 l/m 6,8 km/h (2 Bft) S 180 1,9 C 1,8 C 8,9 km/h (2 Bft)
04.03.2014 12:50 3,5 C 91 % 1002,9 hPa 0,0 l/m 6,9 km/h (2 Bft) S-SW 202 2,2 C 2,1 C 6,1 km/h (2 Bft)
04.03.2014 12:55 3,6 C 91 % 1002,9 hPa 0,0 l/m 7,7 km/h (2 Bft) S 180 2,3 C 1,4 C 11,7 km/h (2 Bft)
04.03.2014 13:00 3,7 C 90 % 1002,9 hPa 0,0 l/m 7,4 km/h (2 Bft) SW 225 2,2 C 2,1 C 13,4 km/h (3 Bft)
04.03.2014 13:05 4,0 C 89 % 1002,9 hPa 0,0 l/m 6,6 km/h (2 Bft) S-SO 157 2,4 C 3,4 C 5,5 km/h (1 Bft)
04.03.2014 13:10 3,8 C 88 % 1003,0 hPa 0,0 l/m 6,0 km/h (2 Bft) S 180 2,0 C 4,0 C 7,9 km/h (2 Bft)
04.03.2014 13:15 4,0 C 88 % 1003,0 hPa 0,0 l/m 6,3 km/h (2 Bft) S-SO 157 2,2 C 3,9 C 7,4 km/h (2 Bft)
04.03.2014 13:20 3,9 C 88 % 1003,0 hPa 0,0 l/m 6,6 km/h (2 Bft) S-SO 157 2,1 C 3,6 C 7,2 km/h (2 Bft)
04.03.2014 13:25 3,8 C 88 % 1003,0 hPa 0,0 l/m 6,3 km/h (2 Bft) S-SW 202 2,0 C 3,9 C 2,7 km/h (1 Bft)
04.03.2014 13:30 3,6 C 87 % 1003,2 hPa 0,0 l/m 6,0 km/h (2 Bft) W-SW 247 1,6 C 3,7 C 7,2 km/h (2 Bft)
04.03.2014 13:35 3,6 C 87 % 1003,2 hPa 0,0 l/m 6,1 km/h (2 Bft) S 180 1,6 C 3,4 C 8,7 km/h (2 Bft)
04.03.2014 13:40 3,6 C 86 % 1003,2 hPa 0,0 l/m 7,9 km/h (2 Bft) S-SW 202 1,5 C 1,4 C 16,3 km/h (3 Bft)
04.03.2014 13:45 3,7 C 87 % 1003,2 hPa 0,0 l/m 8,0 km/h (2 Bft) W-SW 247 1,7 C 1,3 C 6,8 km/h (2 Bft)
04.03.2014 13:50 3,4 C 85 % 1003,3 hPa 0,0 l/m 7,4 km/h (2 Bft) S 180 1,1 C 1,7 C 6,8 km/h (2 Bft)
04.03.2014 13:55 3,4 C 86 % 1003,3 hPa 0,0 l/m 7,2 km/h (2 Bft) S 180 1,3 C 1,9 C 10,3 km/h (2 Bft)
04.03.2014 14:00 3,6 C 86 % 1003,3 hPa 0,0 l/m 6,3 km/h (2 Bft) W-SW 247 1,5 C 3,1 C 6,8 km/h (2 Bft)
04.03.2014 14:05 3,6 C 86 % 1003,3 hPa 0,0 l/m 6,4 km/h (2 Bft) S 180 1,5 C 3,1 C 7,6 km/h (2 Bft)
04.03.2014 14:10 3,4 C 86 % 1003,6 hPa 0,0 l/m 5,8 km/h (2 Bft) W-SW 247 1,3 C 3,2 C 6,0 km/h (2 Bft)
04.03.2014 14:15 3,4 C 87 % 1003,6 hPa 0,0 l/m 5,5 km/h (1 Bft) S-SW 202 1,4 C 3,1 C 6,6 km/h (2 Bft)
04.03.2014 14:20 3,4 C 87 % 1003,6 hPa 0,0 l/m 6,3 km/h (2 Bft) W-SW 247 1,4 C 2,7 C 5,3 km/h (1 Bft)
04.03.2014 14:25 3,3 C 87 % 1003,6 hPa 0,0 l/m 6,4 km/h (2 Bft) S 180 1,3 C 2,7 C 6,4 km/h (2 Bft)
04.03.2014 14:30 3,4 C 86 % 1003,6 hPa 0,0 l/m 6,1 km/h (2 Bft) S-SO 157 1,3 C 2,4 C 3,2 km/h (1 Bft)
04.03.2014 14:35 3,7 C 87 % 1003,6 hPa 0,0 l/m 6,0 km/h (2 Bft) S 180 1,7 C 2,7 C 6,1 km/h (2 Bft)
04.03.2014 14:40 3,8 C 87 % 1003,6 hPa 0,0 l/m 5,6 km/h (1 Bft) S 180 1,8 C 2,9 C 6,8 km/h (2 Bft)
04.03.2014 14:45 3,7 C 88 % 1003,6 hPa 0,0 l/m 5,6 km/h (1 Bft) S 180 1,9 C 2,9 C 10,0 km/h (2 Bft)
04.03.2014 14:50 3,6 C 88 % 1003,7 hPa 0,0 l/m 5,3 km/h (1 Bft) S 180 1,8 C 2,8 C 5,3 km/h (1 Bft)
04.03.2014 14:55 3,5 C 88 % 1003,7 hPa 0,0 l/m 5,8 km/h (2 Bft) S 180 1,7 C 2,5 C 7,2 km/h (2 Bft)
04.03.2014 15:00 3,5 C 89 % 1003,7 hPa 0,0 l/m 5,8 km/h (2 Bft) S-SW 202 1,9 C 2,5 C 8,0 km/h (2 Bft)
04.03.2014 15:05 3,4 C 88 % 1003,7 hPa 0,0 l/m 6,3 km/h (2 Bft) S-SO 157 1,6 C 2,2 C 7,2 km/h (2 Bft)
04.03.2014 15:10 3,5 C 88 % 1003,9 hPa 0,0 l/m 6,1 km/h (2 Bft) S-SW 202 1,7 C 2,4 C 7,1 km/h (2 Bft)
04.03.2014 15:15 3,4 C 88 % 1003,9 hPa 0,0 l/m 6,1 km/h (2 Bft) S 180 1,6 C 2,3 C 8,4 km/h (2 Bft)
04.03.2014 15:20 3,5 C 89 % 1003,9 hPa 0,0 l/m 5,5 km/h (1 Bft) W 270 1,9 C 2,5 C 5,3 km/h (1 Bft)
04.03.2014 15:25 3,4 C 89 % 1003,9 hPa 0,0 l/m 5,0 km/h (1 Bft) W-SW 247 1,8 C 2,7 C 6,3 km/h (2 Bft)
04.03.2014 15:30 3,1 C 89 % 1004,2 hPa 0,0 l/m 5,6 km/h (1 Bft) S-SW 202 1,5 C 2,2 C 6,9 km/h (2 Bft)
04.03.2014 15:35 3,2 C 89 % 1004,2 hPa 0,0 l/m 6,0 km/h (2 Bft) S 180 1,6 C 2,1 C 7,2 km/h (2 Bft)
04.03.2014 15:40 3,2 C 89 % 1004,2 hPa 0,0 l/m 6,3 km/h (2 Bft) S-SO 157 1,6 C 1,9 C 7,7 km/h (2 Bft)
04.03.2014 15:45 3,1 C 89 % 1004,2 hPa 0,0 l/m 6,3 km/h (2 Bft) S-SW 202 1,5 C 1,9 C 6,4 km/h (2 Bft)
04.03.2014 15:50 3,2 C 89 % 1004,5 hPa 0,0 l/m 6,3 km/h (2 Bft) S 180 1,6 C 1,9 C 7,9 km/h (2 Bft)
04.03.2014 15:55 3,1 C 90 % 1004,5 hPa 0,0 l/m 5,6 km/h (1 Bft) S 180 1,6 C 2,1 C 6,8 km/h (2 Bft)
04.03.2014 16:00 3,3 C 90 % 1004,5 hPa 0,0 l/m 5,5 km/h (1 Bft) S-SW 202 1,8 C 2,2 C 10,3 km/h (2 Bft)
04.03.2014 16:05 3,2 C 90 % 1004,5 hPa 0,0 l/m 5,6 km/h (1 Bft) S-SO 157 1,7 C 2,2 C 7,1 km/h (2 Bft)
04.03.2014 16:10 3,2 C 90 % 1004,7 hPa 0,0 l/m 6,1 km/h (2 Bft) S 180 1,7 C 2,1 C 6,4 km/h (2 Bft)
04.03.2014 16:15 3,2 C 90 % 1004,7 hPa 0,0 l/m 6,0 km/h (2 Bft) S 180 1,7 C 2,1 C 6,9 km/h (2 Bft)
04.03.2014 16:20 3,1 C 89 % 1004,7 hPa 0,0 l/m 5,5 km/h (1 Bft) S 180 1,5 C 2,3 C 4,0 km/h (1 Bft)
04.03.2014 16:25 3,2 C 90 % 1004,7 hPa 0,0 l/m 4,8 km/h (1 Bft) S 180 1,7 C 2,6 C 6,4 km/h (2 Bft)
04.03.2014 16:30 3,2 C 90 % 1004,8 hPa 0,0 l/m 3,9 km/h (1 Bft) S-SW 202 1,7 C 3,1 C 7,6 km/h (2 Bft)
04.03.2014 16:35 3,1 C 89 % 1004,8 hPa 0,0 l/m 4,5 km/h (1 Bft) W-SW 247 1,5 C 2,8 C 4,3 km/h (1 Bft)
04.03.2014 16:40 3,3 C 90 % 1004,8 hPa 0,0 l/m 4,2 km/h (1 Bft) S-SW 202 1,8 C 3,1 C 6,6 km/h (2 Bft)
04.03.2014 16:45 3,2 C 90 % 1004,8 hPa 0,0 l/m 4,0 km/h (1 Bft) S 180 1,7 C 3,1 C 4,0 km/h (1 Bft)
04.03.2014 16:50 3,2 C 90 % 1004,9 hPa 0,0 l/m 4,5 km/h (1 Bft) S 180 1,7 C 2,8 C 3,4 km/h (1 Bft)
04.03.2014 16:55 3,2 C 90 % 1004,9 hPa 0,0 l/m 4,2 km/h (1 Bft) S 180 1,7 C 3,1 C 7,6 km/h (2 Bft)
04.03.2014 17:00 3,2 C 90 % 1004,9 hPa 0,0 l/m 4,3 km/h (1 Bft) SO 135 1,7 C 2,9 C 3,5 km/h (1 Bft)
04.03.2014 17:05 3,2 C 90 % 1004,9 hPa 0,0 l/m 4,5 km/h (1 Bft) S-SW 202 1,7 C 2,8 C 5,3 km/h (1 Bft)
04.03.2014 17:10 3,0 C 90 % 1004,9 hPa 0,0 l/m 4,2 km/h (1 Bft) S-SW 202 1,5 C 2,8 C 5,6 km/h (1 Bft)
04.03.2014 17:15 3,0 C 90 % 1004,9 hPa 0,0 l/m 4,2 km/h (1 Bft) S 180 1,5 C 2,7 C 6,4 km/h (2 Bft)
04.03.2014 17:20 2,8 C 92 % 1004,9 hPa 0,0 l/m 3,9 km/h (1 Bft) S-SO 157 1,6 C 2,8 C 7,2 km/h (2 Bft)
04.03.2014 17:25 2,8 C 92 % 1004,9 hPa 0,0 l/m 4,3 km/h (1 Bft) S-SO 157 1,6 C 2,4 C 4,3 km/h (1 Bft)
04.03.2014 17:30 2,7 C 92 % 1005,2 hPa 0,0 l/m 4,0 km/h (1 Bft) SO 135 1,5 C 2,4 C 4,2 km/h (1 Bft)
04.03.2014 17:35 2,6 C 92 % 1005,2 hPa 0,0 l/m 3,2 km/h (1 Bft) O-SO 112 1,4 C 2,7 C 2,9 km/h (1 Bft)
04.03.2014 17:40 2,6 C 92 % 1005,2 hPa 0,0 l/m 2,3 km/h (1 Bft) SW 225 1,4 C 2,9 C 2,6 km/h (1 Bft)
04.03.2014 17:44 2,5 C 92 % 1005,2 hPa 0,0 l/m 1,8 km/h (1 Bft) O 90 1,3 C 2,9 C 4,5 km/h (1 Bft)
04.03.2014 17:45 2,5 C 92 % 1005,2 hPa 0,0 l/m 1,8 km/h (1 Bft) O 90 1,3 C 2,9 C 4,5 km/h (1 Bft)
04.03.2014 17:50 2,5 C 92 % 1005,5 hPa 0,0 l/m 3,1 km/h (1 Bft) SO 135 1,3 C 2,6 C 7,4 km/h (2 Bft)
04.03.2014 17:55 2,4 C 92 % 1005,5 hPa 0,0 l/m 3,9 km/h (1 Bft) S 180 1,2 C 2,1 C 3,1 km/h (1 Bft)
04.03.2014 18:00 2,3 C 92 % 1005,5 hPa 0,0 l/m 3,2 km/h (1 Bft) O-SO 112 1,1 C 2,3 C 1,6 km/h (1 Bft)
04.03.2014 18:05 2,1 C 92 % 1005,5 hPa 0,0 l/m 2,3 km/h (1 Bft) S 180 0,9 C 2,5 C 0,0 km/h (0 Bft)
04.03.2014 18:10 2,2 C 92 % 1005,6 hPa 0,0 l/m 2,4 km/h (1 Bft) S 180 1,0 C 2,4 C 3,4 km/h (1 Bft)
04.03.2014 18:15 2,1 C 93 % 1005,6 hPa 0,0 l/m 2,6 km/h (1 Bft) S-SO 157 1,1 C 2,4 C 2,1 km/h (1 Bft)
04.03.2014 18:20 2,0 C 93 % 1005,6 hPa 0,0 l/m 2,1 km/h (1 Bft) S-SO 157 1,0 C 2,4 C 3,4 km/h (1 Bft)
04.03.2014 18:25 1,9 C 93 % 1005,6 hPa 0,0 l/m 2,1 km/h (1 Bft) O-SO 112 0,9 C 2,3 C 1,8 km/h (1 Bft)
04.03.2014 18:30 1,9 C 93 % 1005,9 hPa 0,0 l/m 3,1 km/h (1 Bft) SO 135 0,9 C 1,9 C 8,9 km/h (2 Bft)
04.03.2014 18:35 2,0 C 93 % 1005,9 hPa 0,0 l/m 3,4 km/h (1 Bft) O-NO 67 1,0 C 1,8 C 3,9 km/h (1 Bft)
04.03.2014 18:40 2,1 C 93 % 1005,9 hPa 0,0 l/m 3,9 km/h (1 Bft) S-SO 157 1,1 C 1,6 C 7,7 km/h (2 Bft)
04.03.2014 18:45 2,2 C 93 % 1005,9 hPa 0,0 l/m 4,3 km/h (1 Bft) S 180 1,2 C 1,4 C 5,5 km/h (1 Bft)
04.03.2014 18:50 2,1 C 93 % 1006,3 hPa 0,0 l/m 5,3 km/h (1 Bft) S 180 1,1 C 1,1 C 3,7 km/h (1 Bft)
04.03.2014 18:55 2,1 C 93 % 1006,3 hPa 0,0 l/m 3,9 km/h (1 Bft) O-SO 112 1,1 C 1,8 C 3,1 km/h (1 Bft)
04.03.2014 19:00 2,1 C 92 % 1006,3 hPa 0,0 l/m 3,7 km/h (1 Bft) S-SO 157 0,9 C 1,9 C 5,1 km/h (1 Bft)
04.03.2014 19:05 2,0 C 92 % 1006,3 hPa 0,0 l/m 4,3 km/h (1 Bft) S-SO 157 0,8 C 1,4 C 0,0 km/h (0 Bft)
04.03.2014 19:10 2,0 C 92 % 1006,7 hPa 0,0 l/m 5,0 km/h (1 Bft) S-SO 157 0,8 C 1,0 C 7,4 km/h (2 Bft)
04.03.2014 19:15 1,9 C 92 % 1006,7 hPa 0,0 l/m 4,7 km/h (1 Bft) S 180 0,7 C 1,1 C 5,6 km/h (1 Bft)
04.03.2014 19:20 1,9 C 92 % 1006,7 hPa 0,0 l/m 5,3 km/h (1 Bft) S 180 0,7 C 0,7 C 4,8 km/h (1 Bft)
04.03.2014 19:25 1,8 C 92 % 1006,7 hPa 0,0 l/m 5,6 km/h (1 Bft) O-SO 112 0,6 C 0,4 C 5,0 km/h (1 Bft)
04.03.2014 19:30 1,8 C 92 % 1006,9 hPa 0,0 l/m 5,3 km/h (1 Bft) S 180 0,6 C 0,6 C 3,9 km/h (1 Bft)
04.03.2014 19:35 1,6 C 92 % 1006,9 hPa 0,0 l/m 5,3 km/h (1 Bft) O-SO 112 0,4 C 0,4 C 5,5 km/h (1 Bft)
04.03.2014 19:40 1,5 C 92 % 1006,9 hPa 0,0 l/m 5,0 km/h (1 Bft) SO 135 0,3 C 0,2 C 5,6 km/h (1 Bft)
04.03.2014 19:45 1,4 C 92 % 1006,9 hPa 0,0 l/m 4,5 km/h (1 Bft) S 180 0,2 C 0,4 C 3,1 km/h (1 Bft)
04.03.2014 19:50 1,4 C 92 % 1007,1 hPa 0,0 l/m 3,2 km/h (1 Bft) S-SO 157 0,2 C 1,1 C 3,4 km/h (1 Bft)
04.03.2014 19:55 1,3 C 93 % 1007,1 hPa 0,0 l/m 3,4 km/h (1 Bft) SO 135 0,3 C 0,8 C 5,8 km/h (2 Bft)
04.03.2014 20:00 1,4 C 93 % 1007,1 hPa 0,0 l/m 4,0 km/h (1 Bft) O 90 0,4 C 0,4 C 7,6 km/h (2 Bft)
04.03.2014 20:05 1,4 C 93 % 1007,1 hPa 0,0 l/m 4,7 km/h (1 Bft) S 180 0,4 C 0,1 C 6,4 km/h (2 Bft)
04.03.2014 20:10 1,4 C 93 % 1007,1 hPa 0,0 l/m 5,6 km/h (1 Bft) O-SO 112 0,4 C -0,3 C 7,6 km/h (2 Bft)
04.03.2014 20:15 1,4 C 94 % 1007,1 hPa 0,0 l/m 5,1 km/h (1 Bft) O 90 0,5 C -0,1 C 10,1 km/h (2 Bft)
04.03.2014 20:20 1,4 C 94 % 1007,1 hPa 0,0 l/m 4,8 km/h (1 Bft) O-SO 112 0,5 C 0,2 C 3,5 km/h (1 Bft)
04.03.2014 20:25 1,4 C 94 % 1007,1 hPa 0,0 l/m 4,2 km/h (1 Bft) O-SO 112 0,5 C 0,5 C 3,4 km/h (1 Bft)
04.03.2014 20:30 1,3 C 94 % 1007,2 hPa 0,0 l/m 2,3 km/h (1 Bft) O 90 0,4 C 1,5 C 6,1 km/h (2 Bft)
04.03.2014 20:35 1,4 C 94 % 1007,2 hPa 0,0 l/m 2,4 km/h (1 Bft) O 90 0,5 C 1,5 C 5,3 km/h (1 Bft)
04.03.2014 20:40 1,3 C 94 % 1007,2 hPa 0,0 l/m 4,2 km/h (1 Bft) NO 45 0,4 C 0,5 C 7,6 km/h (2 Bft)
04.03.2014 20:45 1,4 C 95 % 1007,2 hPa 0,0 l/m 4,0 km/h (1 Bft) S-SO 157 0,7 C 0,6 C 6,1 km/h (2 Bft)
04.03.2014 20:50 1,3 C 95 % 1007,4 hPa 0,0 l/m 3,7 km/h (1 Bft) S 180 0,6 C 0,9 C 3,2 km/h (1 Bft)
04.03.2014 20:55 1,2 C 95 % 1007,4 hPa 0,0 l/m 3,1 km/h (1 Bft) S-SW 202 0,5 C 1,1 C 2,1 km/h (1 Bft)
04.03.2014 21:00 1,2 C 95 % 1007,4 hPa 0,0 l/m 1,4 km/h (1 Bft) O 90 0,5 C 1,4 C 5,5 km/h (1 Bft)
04.03.2014 21:05 1,4 C 95 % 1007,4 hPa 0,0 l/m 2,4 km/h (1 Bft) SO 135 0,7 C 1,5 C 2,6 km/h (1 Bft)
04.03.2014 21:10 1,4 C 95 % 1007,5 hPa 0,0 l/m 4,7 km/h (1 Bft) NO 45 0,7 C 0,5 C 6,1 km/h (2 Bft)
04.03.2014 21:15 1,5 C 95 % 1007,5 hPa 0,0 l/m 4,8 km/h (1 Bft) O-SO 112 0,8 C 0,4 C 6,9 km/h (2 Bft)
04.03.2014 21:20 1,4 C 95 % 1007,5 hPa 0,0 l/m 3,7 km/h (1 Bft) S-SO 157 0,7 C 1,1 C 0,0 km/h (0 Bft)
04.03.2014 21:25 1,3 C 95 % 1007,5 hPa 0,0 l/m 2,7 km/h (1 Bft) S 180 0,6 C 1,7 C 2,9 km/h (1 Bft)
04.03.2014 21:30 1,4 C 95 % 1007,8 hPa 0,0 l/m 1,8 km/h (1 Bft) S 180 0,7 C 1,7 C 2,9 km/h (1 Bft)
04.03.2014 21:35 1,4 C 95 % 1007,8 hPa 0,0 l/m 2,3 km/h (1 Bft) SO 135 0,7 C 1,7 C 4,3 km/h (1 Bft)
04.03.2014 21:40 1,4 C 95 % 1007,8 hPa 0,0 l/m 2,7 km/h (1 Bft) S-SO 157 0,7 C 1,6 C 5,0 km/h (1 Bft)
04.03.2014 21:45 1,4 C 95 % 1007,8 hPa 0,0 l/m 2,6 km/h (1 Bft) O 90 0,7 C 1,7 C 0,0 km/h (0 Bft)
04.03.2014 21:50 1,5 C 95 % 1007,9 hPa 0,0 l/m 2,6 km/h (1 Bft) O-SO 112 0,8 C 1,7 C 3,4 km/h (1 Bft)
04.03.2014 21:55 1,5 C 95 % 1007,9 hPa 0,0 l/m 1,8 km/h (1 Bft) S-SO 157 0,8 C 1,8 C 2,4 km/h (1 Bft)
04.03.2014 22:00 1,4 C 96 % 1007,9 hPa 0,0 l/m 1,1 km/h (1 Bft) S 180 0,8 C 1,8 C 0,0 km/h (0 Bft)
04.03.2014 22:05 1,4 C 96 % 1007,9 hPa 0,0 l/m 1,0 km/h (0 Bft) SO 135 0,8 C 1,7 C 2,3 km/h (1 Bft)
04.03.2014 22:10 1,3 C 96 % 1008,1 hPa 0,0 l/m 0,5 km/h (0 Bft) SW 225 0,7 C 1,7 C 3,5 km/h (1 Bft)
04.03.2014 22:15 1,3 C 96 % 1008,1 hPa 0,0 l/m 1,6 km/h (1 Bft) O 90 0,7 C 1,7 C 3,9 km/h (1 Bft)
04.03.2014 22:20 1,3 C 96 % 1008,1 hPa 0,0 l/m 3,5 km/h (1 Bft) SO 135 0,7 C 1,0 C 4,3 km/h (1 Bft)
04.03.2014 22:25 1,4 C 96 % 1008,1 hPa 0,0 l/m 3,9 km/h (1 Bft) SO 135 0,8 C 0,8 C 7,1 km/h (2 Bft)
04.03.2014 22:30 1,3 C 96 % 1008,3 hPa 0,0 l/m 3,7 km/h (1 Bft) SO 135 0,7 C 0,8 C 4,3 km/h (1 Bft)
04.03.2014 22:35 1,3 C 96 % 1008,3 hPa 0,0 l/m 3,7 km/h (1 Bft) O-SO 112 0,7 C 0,8 C 5,0 km/h (1 Bft)
04.03.2014 22:40 1,4 C 96 % 1008,3 hPa 0,0 l/m 3,4 km/h (1 Bft) SO 135 0,8 C 0,9 C 4,3 km/h (1 Bft)
04.03.2014 22:44 1,4 C 96 % 1008,3 hPa 0,0 l/m 2,6 km/h (1 Bft) S-SO 157 0,8 C 1,4 C 2,7 km/h (1 Bft)
04.03.2014 22:45 1,4 C 96 % 1008,3 hPa 0,0 l/m 2,6 km/h (1 Bft) S-SO 157 0,8 C 1,4 C 2,7 km/h (1 Bft)
04.03.2014 22:50 1,4 C 96 % 1008,5 hPa 0,0 l/m 2,7 km/h (1 Bft) S 180 0,8 C 1,4 C 3,1 km/h (1 Bft)
04.03.2014 22:55 1,4 C 96 % 1008,5 hPa 0,0 l/m 3,1 km/h (1 Bft) SO 135 0,8 C 1,1 C 4,3 km/h (1 Bft)
04.03.2014 23:00 1,4 C 96 % 1008,5 hPa 0,0 l/m 3,1 km/h (1 Bft) SO 135 0,8 C 1,3 C 3,5 km/h (1 Bft)
04.03.2014 23:05 1,4 C 96 % 1008,5 hPa 0,0 l/m 3,1 km/h (1 Bft) O-SO 112 0,8 C 1,3 C 3,4 km/h (1 Bft)
04.03.2014 23:10 1,4 C 96 % 1008,6 hPa 0,0 l/m 3,2 km/h (1 Bft) SO 135 0,8 C 1,2 C 7,6 km/h (2 Bft)
04.03.2014 23:15 1,4 C 96 % 1008,6 hPa 0,0 l/m 3,9 km/h (1 Bft) O-SO 112 0,8 C 0,8 C 4,2 km/h (1 Bft)
04.03.2014 23:20 1,5 C 96 % 1008,6 hPa 0,0 l/m 5,0 km/h (1 Bft) SO 135 0,9 C 0,4 C 5,3 km/h (1 Bft)
04.03.2014 23:25 1,5 C 96 % 1008,6 hPa 0,0 l/m 4,8 km/h (1 Bft) S-SO 157 0,9 C 0,4 C 4,3 km/h (1 Bft)
04.03.2014 23:30 1,5 C 96 % 1008,9 hPa 0,0 l/m 5,5 km/h (1 Bft) SO 135 0,9 C 0,2 C 6,4 km/h (2 Bft)
04.03.2014 23:35 1,5 C 96 % 1008,9 hPa 0,0 l/m 5,0 km/h (1 Bft) SO 135 0,9 C 0,4 C 4,5 km/h (1 Bft)
04.03.2014 23:40 1,5 C 96 % 1008,9 hPa 0,0 l/m 4,3 km/h (1 Bft) SO 135 0,9 C 0,7 C 6,4 km/h (2 Bft)
04.03.2014 23:45 1,5 C 96 % 1008,9 hPa 0,0 l/m 4,2 km/h (1 Bft) O-SO 112 0,9 C 0,7 C 7,2 km/h (2 Bft)
04.03.2014 23:50 1,5 C 96 % 1008,8 hPa 0,0 l/m 4,8 km/h (1 Bft) S 180 0,9 C 0,4 C 5,6 km/h (1 Bft)
04.03.2014 23:55 1,6 C 96 % 1008,8 hPa 0,0 l/m 5,3 km/h (1 Bft) SO 135 1,0 C 0,2 C 5,3 km/h (1 Bft)
_ Min-Zeit 08:10 13:50 03:25 - 08:10 - - 19:50 20:10 22:00
Minimum _ 0,7 C 85 % 997,2 hPa - 0,0 km/h (0 Bft) - - 0,2 C -0,3 C 0,0 km/h (0 Bft)
_ Max-Zeit 13:15 08:40 23:45 23:55 13:45 - - 13:05 13:10 13:40
Maximum _ 4,0 C 98 % 1008,9 hPa 0,0 l/m 8,0 km/h
W-SW (2 Bft)
- - 2,4 C 4,0 C 16,3 km/h
S-SW (3 Bft)
Durchschnitt _ 1,9 C 95 % 1002,2 hPa #0,0 l/m 3,0 km/h (1 Bft) S - 1,1 C 1,6 C 3,8 km/h (1 Bft)